Weather History for Corpus Christi, TX

Change the Weather History Date:

Wednesday, December 5, 2012

  Actual Average Record
Temperature  
Mean Temperature 67 °F 60 °F  
Max Temperature 80 °F 70 °F 91 °F (1977)
Min Temperature 54 °F 50 °F 32 °F (2009)
Degree Days  
Heating Degree Days 0 7  
Month to date heating degree days 0 31  
Since 1 July heating degree days 39 132  
Cooling Degree Days 2 2  
Month to date cooling degree days 48 10  
Year to date cooling degree days 4419 3485  
Growing Degree Days 16 (Base 50)    
Moisture  
Dew Point 51 °F    
Average Humidity 59    
Maximum Humidity 90    
Minimum Humidity 28    
Precipitation  
Precipitation 0.00 in 0.05 in 0.88 in (1971)
Month to date precipitation 0.01 0.25  
Year to date precipitation 18.80 30.18  
Snow  
Snow 0.00 in - - ()
Month to date snowfall 0.0  
Since 1 July snowfall 0.0  
Snow Depth 0.00 in    
Sea Level Pressure  
Sea Level Pressure 30.12 in    
Wind  
Wind Speed 8 mph (NNE)    
Max Wind Speed 14 mph    
Max Gust Speed 17 mph    
Visibility 10 miles    
Events Fog    
T = Trace of Precipitation, MM = Missing Value Source: NWS Daily Summary

Daily Weather History Graph

Daily Weather History Graph

Search for Another Location

Airport:

Trip Planner

Search our weather history database for the weather conditions in past years. The results will help you decide how hot, cold, wet, or windy it might be!

Date:

Astronomy

Dec. 05, 2012 Rise Set
Actual Time 7:06 AM CST 5:34 PM CST
Civil Twilight 6:41 AM CST 6:00 PM CST
Nautical Twilight 6:12 AM CST 6:29 PM CST
Astronomical Twilight 5:43 AM CST 6:57 PM CST
Moon 11:59 PM CST (12/5) 11:54 AM CST (12/5)
Length of Visible Light 11h 18m
Length of Day
10h 27m
Waning Gibbous, 59% of the Moon is Illuminated
Dec 5
Waning Gibbous
Dec 6
Last Quarter
Dec 13
New
Dec 19
First Quarter
Dec 28
Full

Hourly Weather History & Observations

Time (CST) Temp. Dew Point Humidity Pressure Visibility Wind Dir Wind Speed Gust Speed Precip Events Conditions
12:51 AM 66.9 °F 63.0 °F 87% 30.15 in 10.0 mi North 11.5 mph - N/A   Partly Cloudy
1:51 AM 66.0 °F 62.1 °F 87% 30.15 in 10.0 mi NNE 9.2 mph - N/A   Partly Cloudy
2:51 AM 64.9 °F 60.1 °F 84% 30.15 in 10.0 mi North 9.2 mph - N/A   Partly Cloudy
3:51 AM 63.0 °F 59.0 °F 87% 30.15 in 10.0 mi North 8.1 mph - N/A   Partly Cloudy
4:51 AM 62.1 °F 53.1 °F 72% 30.16 in 10.0 mi North 12.7 mph - N/A   Partly Cloudy
5:51 AM 60.1 °F 51.1 °F 72% 30.17 in 10.0 mi North 9.2 mph - N/A   Partly Cloudy
6:51 AM 57.9 °F 48.9 °F 72% 30.19 in 10.0 mi North 10.4 mph - N/A   Partly Cloudy
8:51 AM 62.1 °F 45.0 °F 53% 30.22 in 10.0 mi North 11.5 mph - N/A   Clear
9:51 AM 64.4 °F 44.6 °F 49% 30.22 in 10.0 mi North 10.4 mph - N/A   Clear
10:51 AM 69.1 °F 46.9 °F 45% 30.20 in 10.0 mi North 11.5 mph - N/A   Clear
11:51 AM 73.9 °F 48.0 °F 40% 30.18 in 10.0 mi North 9.2 mph - N/A   Clear
12:51 PM 77.0 °F 46.9 °F 34% 30.13 in 10.0 mi North 10.4 mph - N/A   Clear
1:51 PM 78.1 °F 48.0 °F 35% 30.10 in 10.0 mi NE 10.4 mph - N/A   Clear
2:51 PM 80.1 °F 46.9 °F 31% 30.06 in 10.0 mi NNE 11.5 mph - N/A   Clear
3:51 PM 79.0 °F 45.0 °F 30% 30.05 in 10.0 mi NE 5.8 mph - N/A   Clear
4:51 PM 78.1 °F 43.0 °F 29% 30.04 in 10.0 mi North 9.2 mph - N/A   Clear
5:51 PM 71.1 °F 46.9 °F 42% 30.05 in 10.0 mi East 8.1 mph - N/A   Clear
6:51 PM 68.0 °F 57.0 °F 68% 30.06 in 10.0 mi East 9.2 mph - N/A   Clear
7:51 PM 64.0 °F 55.0 °F 73% 30.07 in 10.0 mi ESE 5.8 mph - N/A   Clear
8:51 PM 61.0 °F 52.0 °F 72% 30.08 in 10.0 mi SSE 4.6 mph - N/A   Partly Cloudy
9:51 PM 57.0 °F 51.1 °F 81% 30.07 in 10.0 mi Calm Calm - N/A   Partly Cloudy
10:51 PM 57.9 °F 51.1 °F 78% 30.06 in 10.0 mi Calm Calm - N/A   Partly Cloudy
11:47 PM 53.6 °F 48.2 °F 82% 30.05 in 7.0 mi Calm Calm - N/A Fog Patches of Fog
11:51 PM 55.0 °F 50.0 °F 83% 30.05 in 7.0 mi Calm Calm - N/A Fog Patches of Fog